OpenBCM V1.07b12 (Linux)

Packet Radio Mailbox

DB0FHN

[JN59NK Nuernberg]

 Login: GUEST





  
CX7BY  > KEPS     11.04.03 05:29l 109 Lines 2841 Bytes #999 (0) @ AMSAT
BID : ORB03100.M
Read: DB0FHN GUEST
Subj: Orbital Elements  03100.MISC
Path: DB0FHN<DB0RGB<DB0MRW<DB0SIF<DB0AIS<DB0ZDF<DB0GE<LX0PAC<LX0HST<HA3PG<
      JE7YGF<7M3TJZ<SP7MGD<ON0BEL<ON4HU<CX2ACB<CX7BY
Sent: 030411/0310Z @:CX7BY.MVD.URY.SA #:35750 [Montevideo] FBB $:ORB03100.M
From: CX7BY@CX7BY.MVD.URY.SA
To  : KEPS@AMSAT


HR AMSAT ORBITAL ELEMENTS FOR MANNED AND MISCELLANEOUS SATELLITES
FROM WA5QGD FORT WORTH,TX April 10, 2003
SEND SUBSCRIBE/UNSUBSCRIBE TO majordomo@amsat.org ONLY
BID: ORB03100.M
TO ALL RADIO AMATEURS BT

Satellite: HUBBLE
Catalog number: 20580
Epoch time:      03100.20060259
Element set:     390
Inclination:       28.4666 deg
RA of node:        69.0952 deg
Eccentricity:    0.0003917
Arg of perigee:    93.8614 deg
Mean anomaly:      30.8673 deg
Mean motion:   14.98046015 rev/day
Decay rate:      1.707e-05 rev/day^2
Epoch rev:           51023
Checksum:              268

Satellite: UARS
Catalog number: 21701
Epoch time:      03100.71305845
Element set:     867
Inclination:       56.9813 deg
RA of node:       185.0258 deg
Eccentricity:    0.0004490
Arg of perigee:    89.0348 deg
Mean anomaly:     271.1181 deg
Mean motion:   15.02979464 rev/day
Decay rate:      1.015e-05 rev/day^2
Epoch rev:           63340
Checksum:              278

Satellite: PO-34
Catalog number: 25520
Epoch time:      03100.71179502
Element set:     658
Inclination:       28.4598 deg
RA of node:       243.1330 deg
Eccentricity:    0.0006280
Arg of perigee:   190.0194 deg
Mean anomaly:     170.0289 deg
Mean motion:   15.14165473 rev/day
Decay rate:      3.142e-05 rev/day^2
Epoch rev:           24534
Checksum:              269

Satellite: ISS
Catalog number: 25544
Epoch time:      03100.80462084
Element set:     878
Inclination:       51.6339 deg
RA of node:       358.6614 deg
Eccentricity:    0.0006690
Arg of perigee:     4.5589 deg
Mean anomaly:     106.2561 deg
Mean motion:   15.57982134 rev/day
Decay rate:     2.1077e-04 rev/day^2
Epoch rev:           25049
Checksum:              301

Satellite: WO-39
Catalog number: 26061
Epoch time:      03099.88984177
Element set:     808
Inclination:      100.1960 deg
RA of node:       166.2738 deg
Eccentricity:    0.0035675
Arg of perigee:   136.9342 deg
Mean anomaly:     223.4636 deg
Mean motion:   14.37892316 rev/day
Decay rate:       7.99e-06 rev/day^2
Epoch rev:           16776
Checksum:              352

Satellite: OO-38
Catalog number: 26063
Epoch time:      03099.73969748
Element set:     759
Inclination:      100.2029 deg
RA of node:       163.3960 deg
Eccentricity:    0.0037023
Arg of perigee:   144.9033 deg
Mean anomaly:     215.4598 deg
Mean motion:   14.35505390 rev/day
Decay rate:       2.79e-06 rev/day^2
Epoch rev:           16758
Checksum:              328

Satellite: NO-45
Catalog number: 26932
Epoch time:      03099.95518611
Element set:    0441
Inclination:      067.0538 deg
RA of node:       125.5900 deg
Eccentricity:    0.0004041
Arg of perigee:   260.0138 deg
Mean anomaly:     100.0507 deg
Mean motion:   14.29315863 rev/day
Decay rate:       1.41e-06 rev/day^2
Epoch rev:           07957
Checksum:              276



Read previous mail | Read next mail


 16.09.2025 09:30:19lGo back Go up